Waarnemingen

Advertentie
Mijn weer
Barranda, Spanje (8365): temperatuur & dauwpunt: 11.11.2019 04:00:00 - 17.11.2019 04:00:00 (CET)Barranda, Spanje (8365): windsnelheid & windstoten: 11.11.2019 04:00:00 - 17.11.2019 04:00:00 (CET)Barranda, Spanje (8365): windrichting: 11.11.2019 04:00:00 - 17.11.2019 04:00:00 (CET)Barranda, Spanje (8365): luchtdruk: 11.11.2019 04:00:00 - 17.11.2019 04:00:00 (CET)Barranda, Spanje (8365): zicht: 11.11.2019 04:00:00 - 17.11.2019 04:00:00 (CET)Barranda, Spanje (8365): Zonneschijnduur: 11.11.2019 04:00:00 - 17.11.2019 04:00:00 (CET)Barranda, Spanje (8365): neerslag: 11.11.2019 04:00:00 - 17.11.2019 04:00:00 (CET)
Datum & Tijd tt [°C] td [°C] ff [km/u] ff [kn] fx [km/u] fx [kn] dd ppp [hPa] vv [km] sd [min] rr [mm]
17.11.2019 04:00:00 - - - - - - - - - - -
17.11.2019 03:00:00 - - - - - - - - - - -
17.11.2019 02:00:00 - - - - - - - - - - -
17.11.2019 01:00:00 - - - - - - - - - - -
17.11.2019 00:00:00 - - - - - - - - - - -
16.11.2019 23:00:00 - - - - - - - - - - -
16.11.2019 22:00:00 - - - - - - - - - - -
16.11.2019 21:00:00 - - - - - - - - - - -
16.11.2019 20:00:00 - - - - - - - - - - -
16.11.2019 19:00:00 - - - - - - - - - - -
16.11.2019 18:00:00 - - - - - - - - - - -
16.11.2019 17:00:00 - - - - - - - - - - -
16.11.2019 16:00:00 - - - - - - - - - - -
16.11.2019 15:00:00 - - - - - - - - - - -
16.11.2019 14:00:00 - - - - - - - - - - -
16.11.2019 13:00:00 - - - - - - - - - - -
16.11.2019 12:00:00 - - - - - - - - - - -
16.11.2019 11:00:00 - - - - - - - - - - -
16.11.2019 10:00:00 - - - - - - - - - - -
16.11.2019 09:00:00 - - - - - - - - - - -
16.11.2019 08:00:00 - - - - - - - - - - -
16.11.2019 07:00:00 - - - - - - - - - - -
16.11.2019 06:00:00 - - - - - - - - - - -
16.11.2019 05:00:00 - - - - - - - - - - -
16.11.2019 04:00:00 - - - - - - - - - - -
16.11.2019 03:00:00 - - - - - - - - - - -
16.11.2019 02:00:00 - - - - - - - - - - -
16.11.2019 01:00:00 - - - - - - - - - - -
16.11.2019 00:00:00 - - - - - - - - - - -
15.11.2019 23:00:00 - - - - - - - - - - -
15.11.2019 22:00:00 - - - - - - - - - - -
15.11.2019 21:00:00 - - - - - - - - - - -
15.11.2019 20:00:00 - - - - - - - - - - -
15.11.2019 19:00:00 - - - - - - - - - - -
15.11.2019 18:00:00 - - - - - - - - - - -
15.11.2019 17:00:00 - - - - - - - - - - -
15.11.2019 16:00:00 - - - - - - - - - - -
15.11.2019 15:00:00 - - - - - - - - - - -
15.11.2019 14:00:00 9,6 -4,2 14 7 33 18 W 1005,3 20 4 0,0
15.11.2019 13:00:00 10,3 -4,2 10 6 29 15 NNW 1005,6 20 41 -
15.11.2019 12:00:00 10,8 -4,2 15 8 29 15 WZW 1005,9 20 60 0,0
15.11.2019 11:00:00 9,4 -2,0 10 5 21 11 WZW 1006,4 20 20 0,0
15.11.2019 10:00:00 7,1 -0,7 3 1 10 6 ZW 1006,7 20 0 0,0
15.11.2019 09:00:00 6,2 0,0 6 3 11 6 ZW 1006,2 20 0 0,0
15.11.2019 08:00:00 5,3 0,0 5 3 16 9 ZW 1005,7 20 0 0,0
15.11.2019 07:00:00 5,8 0,0 1 1 9 5 WNW 1005,0 20 0 -
15.11.2019 06:00:00 6,0 0,2 4 2 9 5 ZZO 1004,8 20 0 0,0
15.11.2019 05:00:00 5,6 -1,2 4 2 11 6 NW 1004,5 20 0 0,0
15.11.2019 04:00:00 6,4 -1,2 6 3 18 10 ZW 1003,6 20 0 0,0
15.11.2019 03:00:00 7,6 -2,0 8 4 27 14 O 1003,0 20 0 0,0
15.11.2019 02:00:00 8,6 -2,2 10 5 55 30 WNW 1002,0 20 0 0,0
15.11.2019 01:00:00 8,5 -2,0 30 16 66 36 W 1002,1 20 0 -
15.11.2019 00:00:00 9,0 -2,0 34 18 66 36 W 1002,3 20 0 0,0
14.11.2019 23:00:00 8,7 -1,2 30 16 62 34 W 1002,6 20 0 0,0
14.11.2019 22:00:00 9,3 -2,7 29 16 69 37 W 1002,5 20 0 0,0
14.11.2019 21:00:00 9,3 -2,5 32 17 67 36 W 1002,6 20 0 0,0
14.11.2019 20:00:00 8,4 -0,7 30 16 56 31 W 1003,6 20 0 0,0
14.11.2019 19:00:00 9,1 -1,7 28 15 56 30 W 1002,7 20 0 -
14.11.2019 18:00:00 9,1 -1,0 31 17 68 37 W 1002,9 20 0 0,0
14.11.2019 17:00:00 10,3 -2,5 26 14 53 29 W 1002,1 20 0 0,0
14.11.2019 16:00:00 10,3 -1,4 26 14 56 30 W 1002,8 20 6 0,0
14.11.2019 15:00:00 10,3 1,1 17 9 54 29 W 1002,7 20 0 0,0
14.11.2019 14:00:00 13,7 1,7 22 12 49 26 W 1001,2 20 0 0,0
14.11.2019 13:00:00 15,4 1,9 15 8 55 30 W 1000,5 20 17 -
14.11.2019 12:00:00 14,9 1,7 15 8 42 23 W 1001,6 20 6 0,0
14.11.2019 11:00:00 12,9 1,3 12 6 42 23 W 1003,6 20 16 0,0
14.11.2019 10:00:00 13,1 0,2 17 9 45 24 W 1004,6 20 60 0,0
14.11.2019 09:00:00 11,7 1,1 16 9 32 17 ZW 1004,4 20 13 0,0
14.11.2019 08:00:00 10,8 1,3 12 6 32 17 WZW 1004,7 20 0 0,0
14.11.2019 07:00:00 11,4 1,3 18 10 35 19 ZW 1005,1 20 0 -
14.11.2019 06:00:00 9,1 3,0 5 3 22 12 W 1006,2 20 0 0,0
14.11.2019 05:00:00 8,9 4,5 6 4 12 6 ZZW 1007,3 20 0 0,0
14.11.2019 04:00:00 9,2 5,6 6 3 22 12 O 1008,9 20 0 0,0
14.11.2019 03:00:00 11,8 6,2 15 8 32 18 WZW 1009,8 20 0 0,0
14.11.2019 02:00:00 11,6 6,1 17 9 34 18 ZW 1010,3 20 0 0,0
14.11.2019 01:00:00 10,6 5,9 5 3 16 9 ZZW 1011,9 20 0 -
14.11.2019 00:00:00 9,8 5,5 5 3 17 9 WZW 1012,8 20 0 0,0
13.11.2019 23:00:00 11,0 5,5 12 6 20 11 WZW 1013,5 20 0 0,0
13.11.2019 22:00:00 10,1 4,8 8 4 14 7 W 1013,9 20 0 0,0
13.11.2019 21:00:00 11,6 4,6 6 3 24 13 Z 1013,8 20 0 0,0
13.11.2019 20:00:00 14,2 4,8 13 7 29 16 WZW 1012,5 20 0 0,0
13.11.2019 19:00:00 11,8 4,5 4 2 11 6 ZW 1012,5 20 0 -
13.11.2019 18:00:00 15,2 4,5 5 3 23 12 W 1011,0 20 0 0,0
13.11.2019 17:00:00 17,7 4,3 9 5 31 17 WZW 1009,5 20 0 0,0
13.11.2019 16:00:00 17,9 4,1 10 5 27 14 W 1008,8 20 4 0,0
13.11.2019 15:00:00 17,5 4,5 9 5 36 20 ZO 1008,7 20 0 0,0
13.11.2019 14:00:00 17,1 5,1 13 7 38 20 OZO 1008,0 20 0 0,0
13.11.2019 13:00:00 17,9 4,8 14 8 41 22 NNW 1007,9 20 31 -
13.11.2019 12:00:00 19,3 5,8 13 7 48 26 WZW 1007,3 20 57 0,0
13.11.2019 11:00:00 18,4 5,6 20 11 51 27 W 1007,4 20 60 0,0
13.11.2019 10:00:00 16,9 5,8 21 12 46 25 WZW 1007,1 20 59 0,0
13.11.2019 09:00:00 15,0 5,5 18 10 39 21 WZW 1006,8 20 52 0,0
13.11.2019 08:00:00 13,0 5,0 19 11 40 22 W 1007,2 20 0 0,0
13.11.2019 07:00:00 13,4 4,8 24 13 45 24 W 1006,4 20 0 -
13.11.2019 06:00:00 13,5 4,3 27 15 42 23 W 1006,7 20 0 0,0
13.11.2019 05:00:00 13,0 4,5 22 12 54 29 W 1007,3 20 0 0,0
13.11.2019 04:00:00 13,7 3,9 14 8 41 22 W 1007,5 20 0 0,0
13.11.2019 03:00:00 12,1 2,9 14 7 33 18 Z 1008,7 20 0 0,0
13.11.2019 02:00:00 10,9 1,7 9 5 30 16 ZZW 1010,0 20 0 0,0
13.11.2019 01:00:00 10,5 1,9 15 8 38 21 WZW 1011,3 20 0 -
13.11.2019 00:00:00 10,3 1,7 16 8 36 20 W 1012,1 20 0 0,0
12.11.2019 23:00:00 8,8 1,3 5 3 30 16 WZW 1013,2 20 0 0,0
12.11.2019 22:00:00 8,8 0,6 10 6 22 12 ZZW 1013,9 20 0 0,0
12.11.2019 21:00:00 8,6 0,9 8 5 13 7 W 1014,1 20 0 0,0
12.11.2019 20:00:00 9,1 -0,3 9 5 15 8 W 1013,5 20 0 0,0
12.11.2019 19:00:00 9,6 -1,4 6 3 14 7 W 1013,4 20 0 -
12.11.2019 18:00:00 10,7 -0,7 4 2 23 12 ZZW 1012,5 20 0 0,0
12.11.2019 17:00:00 14,0 -3,0 8 4 26 14 WZW 1012,1 20 0 0,0
12.11.2019 16:00:00 14,6 -2,7 9 5 26 14 NW 1011,8 20 6 0,0
12.11.2019 15:00:00 15,8 -1,7 9 5 29 16 W 1011,6 20 0 0,0
12.11.2019 14:00:00 15,5 -3,0 12 6 36 19 N 1011,9 20 10 0,0
12.11.2019 13:00:00 15,5 -3,0 8 5 26 14 N 1012,5 20 52 -
12.11.2019 12:00:00 15,4 -2,5 6 3 31 17 NNW 1013,5 20 60 0,0
12.11.2019 11:00:00 14,0 -4,2 12 7 37 20 N 1014,4 20 60 0,0
12.11.2019 10:00:00 13,7 -3,6 4 2 14 8 ZZO 1014,4 20 60 0,0
12.11.2019 09:00:00 10,2 -2,7 6 3 13 7 ZZO 1014,5 20 46 0,0
12.11.2019 08:00:00 6,4 -3,0 6 4 19 11 ZW 1015,4 20 0 0,0
12.11.2019 07:00:00 6,3 -1,4 4 2 32 18 ONO 1015,4 20 0 -
12.11.2019 06:00:00 6,8 -1,4 9 5 18 10 ZW 1015,1 20 0 0,0
12.11.2019 05:00:00 4,2 -0,5 3 2 11 6 W 1015,9 20 0 0,0
12.11.2019 04:00:00 6,2 -0,3 6 3 16 8 ZZW 1015,6 20 0 0,0
12.11.2019 03:00:00 8,7 -1,0 6 4 22 12 ZZW 1015,8 20 0 0,0
12.11.2019 02:00:00 8,2 -0,3 5 3 20 11 Z 1015,6 20 0 0,0
12.11.2019 01:00:00 9,0 0,2 6 3 19 11 WZW 1015,7 20 0 -
12.11.2019 00:00:00 10,0 0,6 8 4 18 10 OZO 1015,9 20 0 0,0
11.11.2019 23:00:00 10,7 2,9 4 2 21 11 W 1015,8 20 0 0,0
11.11.2019 22:00:00 11,3 3,6 5 3 23 12 ZZO 1015,3 20 0 0,0
11.11.2019 21:00:00 11,9 3,4 10 5 25 14 WZW 1014,4 20 0 0,0
11.11.2019 20:00:00 12,4 3,6 11 6 32 17 ZW 1014,4 20 0 0,0
11.11.2019 19:00:00 13,1 2,3 14 8 50 27 NNW 1012,9 20 0 -
11.11.2019 18:00:00 13,7 2,7 11 6 41 22 NNW 1012,3 20 0 0,0
11.11.2019 17:00:00 14,2 3,0 7 4 21 12 O 1011,8 20 0 0,0
11.11.2019 16:00:00 14,9 1,7 9 5 28 15 OZO 1011,7 20 0 0,0
11.11.2019 15:00:00 14,7 0,9 7 4 22 12 Z 1012,0 20 0 0,0
11.11.2019 14:00:00 14,1 -1,4 11 6 24 13 ZZW 1012,1 20 0 0,0
11.11.2019 13:00:00 14,2 -1,4 5 3 24 13 ZZO 1013,3 20 37 -
11.11.2019 12:00:00 12,6 -1,7 9 5 31 17 O 1014,7 20 58 0,0
11.11.2019 11:00:00 11,5 -2,5 12 6 33 18 WZW 1015,3 20 38 0,0
11.11.2019 10:00:00 10,2 -2,0 8 5 27 15 W 1016,3 20 0 0,0
11.11.2019 09:00:00 9,0 -1,7 10 6 26 14 W 1016,9 20 0 0,0
11.11.2019 08:00:00 8,1 -2,5 9 5 36 20 W 1016,9 20 0 0,0
11.11.2019 07:00:00 8,1 -2,7 11 6 42 23 NNW 1016,3 20 0 -
11.11.2019 06:00:00 8,0 -2,7 14 7 41 22 NW 1016,5 20 0 0,0
11.11.2019 05:00:00 7,8 -2,2 14 8 45 25 NNW 1017,0 20 0 0,0
11.11.2019 04:00:00 7,4 -2,5 6 3 39 21 N 1017,6 20 0 0,0

tt = temperatuur
td = dauwpunt
ff = windsnelheid
fx = windstoten
dd = windrichting
ppp = luchtdruk
vv = zicht
sd = Zonneschijnduur
rr = neerslag

Weerstations in de omgeving